Location: Prairie State College
(41.5244°N, 87.6382°W)
Time: 08:01:13
(UTC-05:00)

Amateur Radio Satellites - All Passes

Search period start: 06 May 2016 07:31
Search period end: 07 May 2016 07:31
Location: Prairie State College, 41.5244°N, 87.6382°W

Satellite Date Start Highest point End Downlink Frequencies (MHz)
Time Altitude Azimuth
LilacSat-2 06 May 07:36:58 07:40:38 48° 286° (WNW) 07:44:16 437.200
CANX-2 06 May 07:48:15 07:50:08 13° 90° (E) 07:52:02 2200.000
CUTE-I 06 May 07:54:41 07:59:46 47° 290° (WNW) 08:04:51 437.470
YUBILEINY 06 May 07:55:26 08:01:21 21° 281° (WNW) 08:07:17 435.215
BRITE-PL 06 May 08:09:36 08:14:40 34° 292° (WNW) 08:19:36 437.365/2234.400
SO-50 06 May 08:10:23 08:13:55 19° 319° (NW) 08:17:26 436.795
PHONESAT 2.4 06 May 08:11:47 08:14:07 19° 153° (SSE) 08:16:28 2401.200-2431.200
M-CUBED/EXP-1 PRIME 06 May 08:12:07 08:15:57 75° 106° (ESE) 08:19:28 437.505
CUTE 1.7 + AOD 2 06 May 08:18:58 08:22:28 25° 95° (E) 08:25:56 437.475
RS-15 06 May 08:19:24 08:29:38 33° 256° (WSW) 08:39:50 29.354- 29.394
NOAA 15 06 May 08:25:42 08:29:18 19° 299° (WNW) 08:32:52 137.62
AUBIESAT-1 06 May 08:27:23 08:31:11 87° 289° (WNW) 08:34:42 437.475
ISS 06 May 08:29:53 08:32:07 17° 347° (NNW) 08:34:22 145.825
COMPASS 1 06 May 08:35:49 08:38:54 20° 94° (E) 08:41:59 437.405
DOVE 4 06 May 08:38:30 08:43:31 60° 287° (WNW) 08:48:12 437.250
SEEDS 06 May 08:39:05 08:42:48 30° 96° (E) 08:46:30 437.485
NOAA 18 06 May 08:41:04 08:44:30 17° 300° (WNW) 08:47:56 137.9125
Cosmos 2491 06 May 08:41:08 08:47:49 23° 296° (WNW) 08:54:34 435.465 / 435.565
Cubesat XI-IV 06 May 08:41:20 08:45:06 20° 298° (WNW) 08:48:52 437.490
STRAND 1 06 May 08:46:04 08:48:32 13° 270° (W) 08:51:01 437.568
PRISM 06 May 08:49:09 08:53:01 41° 261° (W) 08:56:55 437.425
CINEMA 3 06 May 08:53:51 08:58:25 63° 101° (E) 09:02:42 145.822/145.860
UNISAT 6 06 May 08:54:14 08:54:25 10° 60° (ENE) 08:54:36 437.425
Cosmos 2504 06 May 08:58:33 09:04:44 27° 276° (W) 09:11:16 435.465 / 435.565
HO-68 06 May 09:00:30 09:07:39 67° 103° (ESE) 09:14:46 435.675
UWE-3 06 May 09:00:33 09:03:03 15° 91° (E) 09:05:32 435.000/436.395/437.385
AAUSAT CUBESAT 2 06 May 09:02:19 09:06:02 31° 97° (E) 09:09:45 437.432
GOMX 1 06 May 09:02:35 09:06:35 21° 296° (WNW) 09:10:26 467.674
TIGRISAT 06 May 09:08:06 09:10:24 14° 63° (ENE) 09:12:43 435.000
CUBEBUG 2 06 May 09:15:15 09:19:06 32° 96° (E) 09:22:51 437.445
ZACube-1 06 May 09:22:06 09:24:58 18° 92° (E) 09:27:47 437.345
CANX-2 06 May 09:22:11 09:26:19 54° 286° (WNW) 09:30:27 2200.000
ANTELSAT 06 May 09:32:22 09:36:07 25° 68° (ENE) 09:39:49 437.575/2403.000
DELFI C3 06 May 09:44:46 09:47:29 17° 93° (E) 09:50:12 145.870
GONETS M04 06 May 09:47:02 09:52:44 18° 61° (ENE) 09:58:23
PHONESAT 2.4 06 May 09:47:31 09:50:37 58° 168° (SSE) 09:53:43 2401.200-2431.200
CUTE 1.7 + AOD 2 06 May 09:54:40 09:58:16 28° 291° (WNW) 10:01:52 437.475
Oscar 11 06 May 09:55:30 09:59:43 50° 100° (E) 10:03:53 145.826/435.025
ISS 06 May 10:07:34 10:09:33 15° 8° (N) 10:11:32 145.825
COMPASS 1 06 May 10:10:47 10:14:33 33° 289° (WNW) 10:18:18 437.405
FUNcube-1 06 May 10:12:50 10:16:59 64° 101° (E) 10:21:03 145.935
DUCHIFAT 1 06 May 10:13:37 10:15:12 12° 62° (ENE) 10:16:47 145.980
SEEDS 06 May 10:15:03 10:18:21 23° 292° (WNW) 10:21:39 437.485
QB50P2 06 May 10:18:27 10:21:02 16° 64° (ENE) 10:23:37 145.880/145.840
AIST 1 06 May 10:18:48 10:21:55 18° 71° (ENE) 10:25:00
POLYITAN 1 06 May 10:20:36 10:23:14 16° 64° (ENE) 10:25:52 437.675
POPSAT HIP 1 06 May 10:22:06 10:24:45 16° 64° (ENE) 10:27:23 437.405
QB50P1 06 May 10:24:43 10:27:33 17° 65° (ENE) 10:30:23 145.935-145.965
UNISAT 6 06 May 10:25:47 10:30:25 90° 122° (ESE) 10:35:00 437.425
CINEMA 3 06 May 10:32:45 10:34:55 13° 299° (WNW) 10:37:03 145.822/145.860
UWE-3 06 May 10:35:46 10:39:46 42° 288° (WNW) 10:43:41 435.000/436.395/437.385
AAUSAT CUBESAT 2 06 May 10:38:10 10:41:21 22° 292° (WNW) 10:44:32 437.432
BUGSAT 1 06 May 10:39:23 10:40:34 11° 61° (ENE) 10:41:47 437.445
TIGRISAT 06 May 10:41:59 10:46:35 65° 259° (W) 10:51:07 435.000
HO-68 06 May 10:49:13 10:54:47 25° 302° (WNW) 11:00:20 435.675
CUBEBUG 2 06 May 10:52:18 10:55:32 21° 293° (WNW) 10:58:42 437.445
NANOSAT C BR1 06 May 10:56:02 10:59:55 35° 70° (ENE) 11:03:48 145.865
ZACube-1 06 May 10:57:34 11:01:24 36° 289° (WNW) 11:05:12 437.345
Cosmos 2499 06 May 10:59:05 11:05:39 28° 70° (ENE) 11:12:34 435.465 / 435.565
ESTCUBE 1 06 May 11:01:32 11:02:58 11° 89° (E) 11:04:22 437.505/2401.250
ANTELSAT 06 May 11:08:31 11:12:40 33° 263° (W) 11:16:47 437.575/2403.000
DELFI C3 06 May 11:18:49 11:22:28 35° 289° (WNW) 11:26:07 145.870
PHONESAT 2.4 06 May 11:24:15 11:27:23 70° 186° (S) 11:30:31 2401.200-2431.200
HUMSAT D 06 May 11:26:05 11:30:09 70° 285° (WNW) 11:34:13 437.325/437.525
VELOX 1 06 May 11:29:20 11:32:06 16° 92° (E) 11:34:51 145.980
Oscar 11 06 May 11:32:54 11:35:26 15° 296° (WNW) 11:37:57 145.826/435.025
JAS-2 06 May 11:38:32 11:43:10 21° 57° (ENE) 11:48:10 435.910
GONETS M04 06 May 11:42:07 11:50:56 87° 84° (E) 11:59:38
50 SAT 06 May 11:42:38 11:45:35 23° 96° (E) 11:48:32 437.505
ISS 06 May 11:43:38 11:46:43 36° 27° (NNE) 11:49:46 145.825
DUCHIFAT 1 06 May 11:46:06 11:50:20 67° 258° (WSW) 11:54:36 145.980
AO-85 06 May 11:49:35 11:54:58 63° 119° (ESE) 12:00:19 145.980
FUNcube-1 06 May 11:51:17 11:52:40 11° 298° (WNW) 11:54:03 145.935
QB50P2 06 May 11:52:17 11:56:26 49° 261° (W) 12:00:37 145.880/145.840
POLYITAN 1 06 May 11:54:30 11:58:39 48° 261° (W) 12:02:49 437.675
AIST 1 06 May 11:55:35 11:59:41 38° 268° (W) 12:03:44
POPSAT HIP 1 06 May 11:56:00 12:00:08 47° 260° (W) 12:04:18 437.405
QB50P1 06 May 11:58:54 12:02:59 43° 261° (W) 12:07:06 145.935-145.965
AISAT 06 May 12:00:57 12:05:05 36° 98° (E) 12:09:11 437.250
BUGSAT 1 06 May 12:11:06 12:15:20 73° 258° (WSW) 12:19:37 437.445
CUBEBUG 1 06 May 12:26:14 12:30:40 67° 101° (E) 12:35:04 437.445
Oscar 19 06 May 12:31:46 12:36:07 28° 66° (ENE) 12:40:30 437.125/150
NANOSAT C BR1 06 May 12:32:34 12:35:44 20° 266° (W) 12:38:55 145.865
ESTCUBE 1 06 May 12:35:42 12:40:14 69° 285° (WNW) 12:44:44 437.505/2401.250
UKube-1 06 May 12:46:09 12:50:31 78° 102° (ESE) 12:54:51 .
DX 1 06 May 12:47:13 12:51:38 83° 285° (WNW) 12:56:00 434.975-435.025
Cosmos 2499 06 May 12:51:28 12:59:11 62° 268° (W) 13:07:29 435.465 / 435.565
Gurwin Techsat 1B 06 May 12:59:08 13:03:05 22° 63° (ENE) 13:07:03 435.225
PHONESAT 2.4 06 May 13:01:13 13:04:01 29° 202° (SSW) 13:06:49 2401.200-2431.200
VELOX 1 06 May 13:04:31 13:08:50 48° 288° (WNW) 13:13:06 145.980
O/OREOS (USA 219) 06 May 13:05:04 13:07:22 14° 98° (E) 13:09:39 437.305
SPROUT 06 May 13:08:29 13:12:47 75° 101° (ESE) 13:17:03 437.525
50 SAT 06 May 13:16:22 13:19:17 22° 291° (WNW) 13:22:11 437.505
ISS 06 May 13:20:14 13:23:05 28° 224° (SW) 13:25:56 145.825
SO-50 06 May 13:20:51 13:22:54 12° 34° (NE) 13:24:55 436.795
JAS-2 06 May 13:21:14 13:27:20 72° 258° (WSW) 13:34:20 435.910
TISAT 1 06 May 13:27:39 13:31:30 33° 97° (E) 13:35:18 437.305
AO-85 06 May 13:31:28 13:35:54 25° 317° (NW) 13:40:15 145.980
AISAT 06 May 13:37:56 13:41:21 22° 294° (WNW) 13:44:44 437.250
GONETS M04 06 May 13:41:00 13:46:30 19° 283° (WNW) 13:52:00
SWISSCUBE 06 May 13:51:31 13:53:44 13° 90° (E) 13:55:57 437.505
ITAMSAT 1 06 May 13:59:03 14:03:34 31° 67° (ENE) 14:08:05 435.822/435.867
AO-7 06 May 14:02:25 14:08:53 26° 54° (NE) 14:15:21 29.400- 29.500
CUBEBUG 1 06 May 14:04:25 14:06:24 13° 298° (WNW) 14:08:21 437.445
Oscar 19 06 May 14:10:31 14:15:16 37° 263° (W) 14:20:05 437.125/150
BEESAT 06 May 14:22:49 14:26:45 25° 95° (E) 14:30:40 436.000
UKube-1 06 May 14:24:55 14:25:55 11° 300° (WNW) 14:26:55 .
PCSat 06 May 14:25:36 14:30:34 38° 111° (ESE) 14:35:33 145.827
Gurwin Techsat 1B 06 May 14:37:31 14:42:40 51° 260° (W) 14:47:51 435.225
O/OREOS (USA 219) 06 May 14:41:42 14:46:13 59° 295° (WNW) 14:50:46 437.305
SPROUT 06 May 14:47:03 14:48:07 11° 299° (WNW) 14:49:11 437.525
CUSAT 1 06 May 14:48:05 14:51:46 63° 96° (E) 14:56:43 437.405
SO-50 06 May 14:59:37 15:04:20 66° 54° (NE) 15:08:53 436.795
TISAT 1 06 May 15:03:46 15:06:57 21° 294° (WNW) 15:10:06 437.305
JAS-2 06 May 15:13:39 15:13:50 10° 279° (W) 15:14:01 435.910
ITUPSAT 1 06 May 15:20:00 15:24:49 87° 284° (WNW) 15:29:36 437.325
KKS-1 06 May 15:22:17 15:24:08 12° 90° (E) 15:25:59 437.445
SWISSCUBE 06 May 15:27:13 15:31:57 66° 287° (WNW) 15:36:41 437.505
ITAMSAT 1 06 May 15:38:21 15:42:58 32° 263° (W) 15:47:36 435.822/435.867
HORYU 2 06 May 15:46:35 15:50:02 23° 66° (ENE) 15:53:30 437.375
AO-7 06 May 15:52:35 16:00:51 77° 254° (WSW) 16:09:12 29.400- 29.500
MOZHAYETS 4 06 May 15:54:21 15:57:38 19° 93° (E) 16:00:55
BEESAT 06 May 16:00:16 16:04:34 34° 291° (WNW) 16:08:51 436.000
PCSat 06 May 16:09:06 16:13:59 33° 309° (NW) 16:18:53 145.827
DANDE 06 May 16:09:34 16:12:30 34° 288° (WNW) 16:16:13 436.750
NOAA 15 06 May 16:28:34 16:31:10 14° 58° (ENE) 16:33:44 137.62
CUSAT 1 06 May 16:33:18 16:34:56 12° 303° (WNW) 16:36:42 437.405
SO-50 06 May 16:41:47 16:44:13 14° 252° (WSW) 16:46:36 436.795
Cubesat XI-IV 06 May 16:45:59 16:48:24 13° 58° (ENE) 16:50:49 437.490
NOAA 18 06 May 16:47:07 16:50:55 19° 61° (ENE) 16:54:43 137.9125
Cosmos 2491 06 May 16:51:47 16:59:56 39° 72° (ENE) 17:07:58 435.465 / 435.565
KKS-1 06 May 16:56:41 17:01:07 62° 287° (WNW) 17:05:30 437.445
ITUPSAT 1 06 May 17:00:58 17:01:53 10° 301° (WNW) 17:02:47 437.325
STARS 06 May 17:01:47 17:06:12 78° 101° (ESE) 17:10:35 437.465
YUBILEINY 06 May 17:05:17 17:10:37 18° 77° (ENE) 17:15:55 435.215
HORYU 2 06 May 17:22:18 17:26:24 35° 262° (W) 17:30:30 437.375
M-CUBED/EXP-1 PRIME 06 May 17:26:15 17:28:15 13° 57° (ENE) 17:30:15 437.505
MOZHAYETS 4 06 May 17:30:40 17:34:58 41° 289° (WNW) 17:39:16
CUTE-I 06 May 17:37:10 17:42:00 37° 68° (ENE) 17:46:51 437.470
AUBIESAT-1 06 May 17:40:38 17:43:04 14° 58° (ENE) 17:45:27 437.475
BRITE-PL 06 May 17:41:44 17:46:18 37° 68° (ENE) 17:51:12 437.365/2234.400
CUBESAT XI-V 06 May 17:50:13 17:54:34 36° 97° (E) 17:58:54 437.345
AO-7 06 May 17:50:59 17:54:54 14° 272° (W) 17:58:50 29.400- 29.500
BEESAT 3 06 May 17:53:36 17:57:31 74° 303° (WNW) 18:01:30 437.485
NOAA 15 06 May 18:04:55 18:10:12 84° 256° (WSW) 18:15:32 137.62
DOVE 4 06 May 18:07:26 18:10:55 18° 63° (ENE) 18:14:27 437.250
BEESAT 2 06 May 18:09:10 18:13:09 87° 306° (NW) 18:17:10 435.950
LilacSat-2 06 May 18:18:29 18:22:22 80° 77° (ENE) 18:26:15 437.200
Cubesat XI-IV 06 May 18:22:22 18:27:42 88° 256° (WSW) 18:33:04 437.490
NOAA 18 06 May 18:25:37 18:31:04 62° 258° (WSW) 18:36:32 137.9125
GOMX 1 06 May 18:31:02 18:36:02 55° 72° (ENE) 18:41:20 467.674
AIST 2 06 May 18:40:39 18:42:42 13° 109° (ESE) 18:44:44 435.215
STARS 06 May 18:40:44 18:41:55 11° 300° (WNW) 18:43:06 437.465
AO-85 06 May 18:43:47 18:45:02 11° 30° (NNE) 18:46:16 145.980
Cosmos 2491 06 May 18:48:37 18:56:52 47° 272° (W) 19:05:02 435.465 / 435.565
YUBILEINY 06 May 18:57:24 19:06:08 89° 277° (W) 19:14:54 435.215
M-CUBED/EXP-1 PRIME 06 May 18:57:28 19:02:12 84° 253° (WSW) 19:06:48 437.505
CUTE 1.7 + AOD 2 06 May 19:12:21 19:15:18 19° 66° (ENE) 19:18:15 437.475
AUBIESAT-1 06 May 19:12:24 19:17:02 71° 252° (WSW) 19:21:32 437.475
STRAND 1 06 May 19:14:47 19:18:51 23° 94° (E) 19:22:54 437.568
CUTE-I 06 May 19:17:34 19:22:06 28° 265° (W) 19:26:39 437.470
BRITE-PL 06 May 19:20:38 19:24:50 27° 267° (W) 19:29:20 437.365/2234.400
COMPASS 1 06 May 19:27:44 19:29:59 14° 64° (ENE) 19:32:14 437.405
CUBESAT XI-V 06 May 19:27:59 19:31:45 24° 293° (WNW) 19:35:30 437.345
HO-68 06 May 19:28:59 19:35:49 51° 67° (ENE) 19:42:41 435.675
SEEDS 06 May 19:31:22 19:34:34 22° 68° (ENE) 19:37:47 437.485
BEESAT 3 06 May 19:35:18 19:35:57 10° 323° (NW) 19:36:36 437.485
DOVE 4 06 May 19:42:55 19:48:02 63° 260° (W) 19:53:20 437.250
Cosmos 2504 06 May 19:43:33 19:50:23 47° 90° (E) 19:57:10 435.465 / 435.565
BEESAT 2 06 May 19:50:08 19:51:38 12° 321° (NW) 19:53:08 435.950
AAUSAT CUBESAT 2 06 May 19:53:09 19:56:19 22° 68° (ENE) 19:59:29 437.432
CINEMA 3 06 May 19:54:31 19:59:28 60° 74° (ENE) 20:04:23 145.822/145.860
UWE-3 06 May 19:57:50 20:00:32 16° 64° (ENE) 20:03:11 435.000/436.395/437.385
Cubesat XI-IV 06 May 20:07:46 20:08:30 10° 272° (W) 20:09:13 437.490
GOMX 1 06 May 20:10:51 20:14:28 19° 270° (W) 20:18:15 467.674
CUBEBUG 2 06 May 20:13:00 20:17:08 31° 70° (ENE) 20:21:11 437.445
CANX-2 06 May 20:14:38 20:18:49 78° 256° (WSW) 20:23:04 2200.000
AIST 2 06 May 20:16:38 20:20:42 57° 305° (NW) 20:24:47 435.215
ZACube-1 06 May 20:18:18 20:21:09 17° 65° (ENE) 20:23:59 437.345
AO-85 06 May 20:22:03 20:26:47 52° 52° (NE) 20:31:03 145.980
RS-15 06 May 20:29:28 20:39:56 47° 109° (ESE) 20:50:55 29.354- 29.394
PRISM 06 May 20:30:43 20:34:11 25° 96° (E) 20:37:37 437.425
DELFI C3 06 May 20:32:45 20:33:56 11° 63° (ENE) 20:35:06 145.870
CUTE 1.7 + AOD 2 06 May 20:46:58 20:50:52 37° 262° (W) 20:54:48 437.475
Oscar 11 06 May 20:50:16 20:54:15 39° 71° (ENE) 20:58:16 145.826/435.025
STRAND 1 06 May 20:53:22 20:58:10 42° 290° (WNW) 21:02:57 437.568
YUBILEINY 06 May 20:58:26 21:04:14 19° 298° (WNW) 21:10:03 435.215
COMPASS 1 06 May 21:01:09 21:05:08 49° 260° (W) 21:09:10 437.405
SEEDS 06 May 21:06:24 21:10:06 31° 263° (W) 21:13:50 437.485
FUNcube-1 06 May 21:07:57 21:12:18 51° 73° (ENE) 21:16:34 145.935
HO-68 06 May 21:17:33 21:23:45 31° 264° (W) 21:29:58 435.675
AAUSAT CUBESAT 2 06 May 21:28:01 21:31:38 30° 263° (W) 21:35:17 437.432
UWE-3 06 May 21:32:01 21:36:33 56° 260° (W) 21:41:01 435.000/436.395/437.385
CINEMA 3 06 May 21:33:54 21:36:56 16° 270° (W) 21:39:57 145.822/145.860
Cosmos 2504 06 May 21:37:47 21:43:57 30° 289° (WNW) 21:50:09 435.465 / 435.565
CUBEBUG 2 06 May 21:49:43 21:53:42 27° 265° (W) 21:57:40 437.445
ZACube-1 06 May 21:52:43 21:57:04 49° 261° (W) 22:01:23 437.345
ESTCUBE 1 06 May 22:01:47 22:03:20 12° 61° (ENE) 22:04:54 437.505/2401.250
AO-85 06 May 22:03:44 22:06:43 17° 252° (WSW) 22:09:33 145.980
DELFI C3 06 May 22:04:24 22:08:17 60° 259° (W) 22:12:12 145.870
PRISM 06 May 22:05:53 22:09:27 27° 292° (WNW) 22:12:59 437.425
HUMSAT D 06 May 22:17:01 22:21:13 79° 75° (ENE) 22:25:23 437.325/437.525
UNISAT 6 06 May 22:18:37 22:21:28 17° 92° (E) 22:24:19 437.425
50 SAT 06 May 22:23:04 22:24:26 12° 64° (ENE) 22:25:49 437.505
VELOX 1 06 May 22:27:16 22:29:53 16° 63° (ENE) 22:32:32 145.980
Oscar 11 06 May 22:27:33 22:30:32 18° 267° (W) 22:33:32 145.826/435.025
TIGRISAT 06 May 22:34:03 22:37:33 24° 95° (E) 22:41:00 435.000
RS-15 06 May 22:41:01 22:52:09 56° 313° (NW) 23:03:58 29.354- 29.394
FUNcube-1 06 May 22:46:15 22:48:48 15° 269° (W) 22:51:19 145.935
GONETS M04 06 May 22:49:51 22:55:46 20° 78° (ENE) 23:01:40
AIST 1 06 May 22:51:12 22:51:43 10° 83° (E) 22:52:15
AISAT 06 May 22:58:23 23:02:23 33° 69° (ENE) 23:06:25 437.250
ANTELSAT 06 May 22:59:41 23:03:52 49° 100° (E) 23:07:59 437.575/2403.000
O/OREOS (USA 219) 06 May 23:12:44 23:16:38 28° 59° (ENE) 23:20:29 437.305
PCSat 06 May 23:13:03 23:17:58 33° 51° (NE) 23:22:50 145.827
CUBEBUG 1 06 May 23:22:01 23:26:18 55° 73° (ENE) 23:30:38 437.445
DUCHIFAT 1 06 May 23:31:04 23:34:02 18° 93° (E) 23:36:58 145.980
ESTCUBE 1 06 May 23:35:03 23:39:31 75° 258° (WSW) 23:44:01 437.505/2401.250
QB50P2 06 May 23:37:27 23:40:59 25° 95° (E) 23:44:30 145.880/145.840
Cosmos 2499 06 May 23:38:53 23:43:22 18° 80° (E) 23:47:54 435.465 / 435.565
POLYITAN 1 06 May 23:39:40 23:43:13 26° 95° (E) 23:46:43 437.675
CUSAT 1 06 May 23:40:24 23:43:20 12° 59° (ENE) 23:46:22 437.405
UKube-1 06 May 23:40:30 23:44:46 66° 74° (ENE) 23:49:06 .
POPSAT HIP 1 06 May 23:41:00 23:44:34 26° 96° (E) 23:48:06 437.405
DX 1 06 May 23:42:28 23:46:50 85° 77° (ENE) 23:51:14 434.975-435.025
QB50P1 06 May 23:43:41 23:47:22 28° 96° (E) 23:51:00 145.935-145.965
BUGSAT 1 06 May 23:54:10 23:56:43 16° 92° (E) 23:59:15 437.445
50 SAT 06 May 23:54:18 23:57:48 46° 260° (W) 00:01:20 437.505
UNISAT 6 06 May 23:54:21 23:58:23 40° 289° (WNW) 00:02:21 437.425
VELOX 1 07 May 00:01:35 00:05:55 53° 260° (W) 00:10:18 145.980
SPROUT 07 May 00:01:52 00:06:05 56° 74° (ENE) 00:10:20 437.525
TIGRISAT 07 May 00:10:32 00:14:14 29° 291° (WNW) 00:17:53 435.000
NANOSAT C BR1 07 May 00:15:31 00:19:44 63° 102° (ESE) 00:23:52 145.865
TISAT 1 07 May 00:19:32 00:23:05 26° 68° (ENE) 00:26:40 437.305
AIST 1 07 May 00:24:22 00:28:40 66° 280° (W) 00:33:02
JAS-2 07 May 00:31:07 00:36:48 21° 88° (E) 00:42:21 435.910
AISAT 07 May 00:35:22 00:38:54 23° 265° (W) 00:42:28 437.250
ANTELSAT 07 May 00:37:40 00:40:11 15° 296° (WNW) 00:42:40 437.575/2403.000
GONETS M04 07 May 00:42:34 00:51:26 83° 278° (W) 01:00:20
O/OREOS (USA 219) 07 May 00:52:05 00:55:59 29° 256° (WSW) 00:59:50 437.305
ITUPSAT 1 07 May 00:52:07 00:54:16 13° 60° (ENE) 00:56:25 437.325
PCSat 07 May 00:56:25 01:01:23 37° 249° (WSW) 01:06:19 145.827
SWISSCUBE 07 May 00:58:03 01:01:02 17° 62° (ENE) 01:04:01 437.505
RS-15 07 May 00:58:54 01:08:09 25° 344° (NNW) 01:17:45 29.354- 29.394
CUBEBUG 1 07 May 01:00:42 01:02:56 14° 269° (W) 01:05:09 437.445
DANDE 07 May 01:01:58 01:07:39 25° 69° (ENE) 01:14:02 436.750
DUCHIFAT 1 07 May 01:05:59 01:09:51 36° 289° (WNW) 01:13:41 145.980
QB50P2 07 May 01:13:10 01:16:45 27° 292° (WNW) 01:20:18 145.880/145.840
POLYITAN 1 07 May 01:15:24 01:18:58 26° 292° (WNW) 01:22:28 437.675
POPSAT HIP 1 07 May 01:16:44 01:20:17 26° 292° (WNW) 01:23:48 437.405
CUSAT 1 07 May 01:19:21 01:26:50 59° 77° (ENE) 01:34:47 437.405
QB50P1 07 May 01:19:36 01:23:02 24° 292° (WNW) 01:26:26 145.935-145.965
UKube-1 07 May 01:20:07 01:21:16 11° 270° (W) 01:22:24 .
BUGSAT 1 07 May 01:28:22 01:32:19 42° 288° (WNW) 01:36:12 437.445
Cosmos 2499 07 May 01:28:33 01:35:34 73° 279° (W) 01:42:45 435.465 / 435.565
BEESAT 07 May 01:29:19 01:33:26 30° 68° (ENE) 01:37:33 436.000
SPROUT 07 May 01:40:26 01:42:23 13° 270° (W) 01:44:20 437.525
NANOSAT C BR1 07 May 01:53:13 01:54:55 12° 298° (WNW) 01:56:37 145.865
TISAT 1 07 May 01:55:04 01:58:40 27° 264° (W) 02:02:18 437.305
BEESAT 3 07 May 02:10:48 02:14:46 64° 56° (NE) 02:18:39 437.485
JAS-2 07 May 02:14:37 02:22:31 81° 286° (WNW) 02:30:13 435.910
KKS-1 07 May 02:20:51 02:22:54 13° 61° (ENE) 02:24:58 437.445
Oscar 19 07 May 02:21:20 02:26:34 78° 104° (ESE) 02:31:44 437.125/150
ITUPSAT 1 07 May 02:26:44 02:31:29 75° 258° (WSW) 02:36:16 437.325
BEESAT 2 07 May 02:27:12 02:31:08 56° 54° (NE) 02:35:03 435.950
SWISSCUBE 07 May 02:33:43 02:38:22 56° 259° (W) 02:43:04 437.505
DANDE 07 May 02:43:47 02:50:52 72° 263° (W) 02:59:09 436.750
GONETS M04 07 May 02:44:10 02:49:43 18° 300° (WNW) 02:55:17
Gurwin Techsat 1B 07 May 02:53:19 02:58:37 63° 102° (ESE) 03:03:53 435.225
MOZHAYETS 4 07 May 02:56:41 02:59:55 19° 65° (ENE) 03:03:09
AIST 2 07 May 03:00:51 03:02:50 13° 39° (NE) 03:04:49 435.215
CUSAT 1 07 May 03:02:05 03:08:38 32° 272° (W) 03:15:26 437.405
BEESAT 07 May 03:07:03 03:11:10 29° 264° (W) 03:15:18 436.000
RS-15 07 May 03:16:26 03:26:16 27° 20° (NNE) 03:36:15 29.354- 29.394
Cosmos 2499 07 May 03:27:55 03:30:10 12° 302° (WNW) 03:32:27 435.465 / 435.565
ITAMSAT 1 07 May 03:50:11 03:55:25 87° 106° (ESE) 04:00:37 435.822/435.867
BEESAT 3 07 May 03:50:51 03:51:54 11° 252° (WSW) 03:52:58 437.485
AO-7 07 May 03:54:17 04:01:51 37° 98° (E) 04:09:21 29.400- 29.500
KKS-1 07 May 03:54:27 03:58:54 67° 258° (WSW) 04:03:24 437.445
STARS 07 May 03:58:10 04:02:34 69° 75° (ENE) 04:07:00 437.465
JAS-2 07 May 04:01:19 04:06:21 19° 305° (NW) 04:11:22 435.910
Oscar 19 07 May 04:02:29 04:05:12 14° 300° (WNW) 04:07:55 437.125/150
BEESAT 2 07 May 04:06:42 04:08:31 13° 251° (WSW) 04:10:19 435.950
DANDE 07 May 04:29:31 04:32:54 14° 278° (W) 04:36:29 436.750
MOZHAYETS 4 07 May 04:32:26 04:36:46 43° 261° (W) 04:41:07
Gurwin Techsat 1B 07 May 04:34:33 04:38:02 18° 299° (WNW) 04:41:31 435.225
AIST 2 07 May 04:37:45 04:41:55 87° 238° (WSW) 04:46:03 435.215
CUBESAT XI-V 07 May 04:53:39 04:57:49 35° 70° (ENE) 05:02:02 437.345
YUBILEINY 07 May 05:07:34 05:15:52 46° 74° (ENE) 05:24:09 435.215
HORYU 2 07 May 05:12:43 05:16:54 40° 99° (E) 05:21:03 437.375
SO-50 07 May 05:14:35 05:18:18 22° 111° (ESE) 05:22:01 436.795
RS-15 07 May 05:29:45 05:41:57 63° 50° (NE) 05:54:08 29.354- 29.394
ITAMSAT 1 07 May 05:31:53 05:34:08 13° 302° (WNW) 05:36:23 435.822/435.867
Cosmos 2504 07 May 05:35:32 05:40:26 18° 64° (ENE) 05:45:31 435.465 / 435.565
STARS 07 May 05:38:13 05:39:23 11° 270° (W) 05:40:33 437.465
AO-7 07 May 05:46:49 05:54:47 52° 296° (WNW) 06:02:46 29.400- 29.500
BRITE-PL 07 May 05:47:48 05:50:41 14° 87° (E) 05:53:31 437.365/2234.400
Cosmos 2491 07 May 05:53:00 06:01:11 45° 87° (E) 06:09:23 435.465 / 435.565
CUTE-I 07 May 05:55:25 05:58:07 14° 90° (E) 06:00:49 437.470
ISS 07 May 05:59:19 06:02:34 78° 145° (SE) 06:05:50 145.825
NOAA 15 07 May 06:20:10 06:25:04 36° 97° (E) 06:29:55 137.62
STRAND 1 07 May 06:30:40 06:35:14 34° 68° (ENE) 06:39:49 437.568
CUBESAT XI-V 07 May 06:31:37 06:35:16 23° 266° (W) 06:38:57 437.345
GOMX 1 07 May 06:34:11 06:37:44 18° 89° (E) 06:41:09 467.674
Cubesat XI-IV 07 May 06:39:41 06:44:36 36° 97° (E) 06:49:29 437.490
NOAA 18 07 May 06:47:28 06:52:50 55° 101° (E) 06:58:09 137.9125
HORYU 2 07 May 06:50:01 06:53:10 19° 295° (WNW) 06:56:18 437.375
SO-50 07 May 06:53:41 06:58:28 50° 308° (NW) 07:03:15 436.795
YUBILEINY 07 May 07:04:39 07:12:29 39° 274° (W) 07:20:19 435.215
PHONESAT 2.4 07 May 07:12:21 07:13:37 12° 148° (SSE) 07:14:55 2401.200-2431.200
PRISM 07 May 07:20:52 07:23:45 19° 66° (ENE) 07:26:40 437.425
